Location: Bremen
(53.0793°N, 8.8017°E)
Time: 11:48:03
(UTC+01:00)

Vanguard 1 Rocket - Pass Details

Date: 09 December 2021
Orbit: 651 x 4224 km, 34.3° (Epoch: 19 January)

Event Time Altitude Azimuth Distance (km) Brightness Sun altitude
Rises 06:01:18 0° 261° (W) 5,339 - -20.4°
Reaches altitude 10° 06:04:47 10° 251° (WSW) 4,774 - -19.9°
Exits shadow 06:06:10 14° 247° (WSW) 4,604 10.5 -19.7°
Maximum altitude 06:16:51 32° 196° (SSW) 4,505 10.8 -18.1°
Drops below altitude 10° 06:35:13 10° 145° (SE) 7,235 12.7 -15.5°
Sets 06:42:24 0° 138° (SE) 8,441 13.5 -14.4°
